Location: Gleizolles
(44.4833°N, 6.7667°E)
Time: 16:41:46
(UTC+00:00)

Tiros 1 - Pass Details

Date: 26 June 2024
Orbit: 624 x 656 km, 48.4° (Epoch: 13 July)

Event Time Altitude Azimuth Distance (km) Brightness Sun altitude
Rises 21:16:21 0° 217° (SW) 2,891 10.3 -15.1°
Reaches altitude 10° 21:18:48 10° 208° (SSW) 1,986 9.4 -15.3°
Maximum altitude 21:22:56 34° 143° (SE) 1,020 7.6 -15.7°
Drops below altitude 10° 21:27:05 10° 78° (ENE) 1,998 9.5 -16.1°
Sets 21:29:33 0° 70° (ENE) 2,910 10.4 -16.3°
